Regional Weather Roundup
Issued by NWS

Home | Current Version | Previous Version | Text Only | Print | Product List | Glossary On
Versions: 1 2 3 4 5 6 7 8 9 10 11 12 13 14 15 16 17 18 19 20 21 22 23 24 25 26 27 28 29 30 31 32 33 34 35 36 37 38 39 40 41 42 43 44 45 46 47 48 49 50
000
ASUS43 KLMK 280110
RWRKY
KENTUCKY REGIONAL WEATHER ROUNDUP
NATIONAL WEATHER SERVICE LOUISVILLE KY
900 PM EDT SAT AUG 27 2016

NOTE "FAIR" INDICATES FEW OR NO CLOUDS BELOW 12,000 FEET
WITH NO SIGNIFICANT WEATHER AND/OR OBSTRUCTIONS TO VISIBILITY.

KYZ001>023-026-027-061>063-070>075-280200-
WESTERN AND SOUTH CENTRAL KENTUCKY

CITY           SKY/WX    TMP DP  RH WIND       PRES   REMARKS
PADUCAH        CLEAR     79  73  82 SE3       30.03R
HENDERSON      CLOUDY    82  73  74 SE3       30.05R
OWENSBORO      CLOUDY    85  76  74 CALM      30.07R HX  94
HOPKINSVILLE   CLOUDY    75  72  92 E10       30.06R
BOWLING GREEN  PTCLDY    79  73  82 SE3       30.08R
GLASGOW        PTCLDY    79  71  76 E8        30.10S
$$

KYZ024-025-028>034-038-045-046-053-280200-
NORTH CENTRAL KENTUCKY

CITY           SKY/WX    TMP DP  RH WIND       PRES   REMARKS
LOUISVILLE/SDF CLOUDY    84  75  74 SE9       30.09R HX  92
LOUISVILLE/LOU CLOUDY    84  74  71 SE5       30.10R HX  91
FORT KNOX      CLOUDY    77  70  78 E8        30.10R
$$

KYZ035>037-039>044-047>052-055>060-089>105-280200-
NORTHEAST KENTUCKY

CITY           SKY/WX    TMP DP  RH WIND       PRES   REMARKS
LEXINGTON      MOCLDY    79  72  79 NE8       30.14R
COVINGTON      PTCLDY    77  73  87 SE7       30.13R
FRANKFORT      CLOUDY    82  72  71 CALM      30.12R
$$

KYZ054-064>069-076>088-106>120-280200-
SOUTHEAST KENTUCKY

CITY           SKY/WX    TMP DP  RH WIND       PRES   REMARKS
JACKSON        CLEAR     81  72  74 CALM      30.15R
LONDON         PTCLDY    82  72  71 CALM      30.14R
SOMERSET       MOCLDY    79  70  73 N6        30.15R
MIDDLESBORO    TSTM      71  68  89 W16G25    30.23R
MONTICELLO     PTCLDY   N/A N/A N/A N13G18    30.15R
$$





USA.gov is the U.S. government's official web portal to all federal, state and local government web resources and services.